This demonstration page uses our WeatherBlox Daily Observations layout. Learn more.

Left ArrowRight Arrow

39.12711, -84.51439

Hourly Observations for October 7, 2018

Temp ( °F °C ) Dew Point ( °F °C ) Humidity (%) Winds ( mph kmh ) Pressure ( in mb ) Visibility ( mi km ) Precip ( " mm )
12:53 am 00:53 Clear with Mist and Fog 69 20.6 69 20.6 100 100 N N/A 30.09 1019 5 8 N/A
12:56 am 00:56 Clear with Mist and Fog 69 20.6 69 20.6 100 100 N N/A 30.06 1018 2 3 N/A
1:07 am 01:07 Clear with Mist and Fog 69 20.6 69 20.6 100 100 N N/A 30.06 1018 3 5 N/A
1:41 am 01:41 Clear with Mist and Fog 69 20.6 69 20.6 100 100 N N/A 30.09 1019 3 4 N/A
1:53 am 01:53 Clear with Mist and Fog 68 20 68 20 100 100 N N/A 30.09 1019 2 2 N/A
2:06 am 02:06 Clear with Fog 66 18.9 66 18.9 100 100 N N/A 30.09 1019 1 1 N/A
2:19 am 02:19 Clear with Mist and Fog 67 19.4 67 19.4 100 100 N N/A 30.09 1019 2 3 N/A
2:30 am 02:30 Clear with Mist and Fog 67 19.4 67 19.4 100 100 N N/A 30.09 1019 1 1 N/A
2:53 am 02:53 Clear with Fog 67 19.4 67 19.4 100 100 N N/A 30.10 1019 1 1 N/A
3:04 am 03:04 Mostly Cloudy with Fog 68 20 68 20 100 100 N N/A 30.09 1019 0 0 N/A
3:28 am 03:28 Mostly Cloudy with Mist and Fog 67 19.4 67 19.4 100 100 N N/A 30.09 1019 1 2 N/A
3:31 am 03:31 Mostly Clear with Mist and Fog 67 19.4 67 19.4 100 100 N N/A 30.09 1019 2 3 N/A
3:38 am 03:38 Clear with Mist and Fog 67 19.4 67 19.4 100 100 N N/A 30.09 1019 4 6 N/A
3:48 am 03:48 Mostly Clear with Mist and Fog 66 19 66 19 100 100 N N/A 30.09 1019 2 3 N/A
3:51 am 03:51 Mostly Cloudy with Mist and Fog 66 19 66 19 100 100 N N/A 30.09 1019 1 1 N/A
3:53 am 03:53 Mostly Cloudy with Fog 66 18.9 66 18.9 100 100 N N/A 30.10 1019 1 1 N/A
4:06 am 04:06 Mostly Cloudy with Mist and Fog 67 19.4 67 19.4 100 100 N N/A 30.09 1019 1 1 N/A
4:13 am 04:13 Mostly Cloudy with Mist and Fog 66 18.9 66 18.9 100 100 N N/A 30.09 1019 3 4 N/A
4:18 am 04:18 Mostly Cloudy with Mist and Fog 66 18.9 66 18.9 100 100 N N/A 30.09 1019 1 1 N/A
4:28 am 04:28 Mostly Cloudy with Fog 66 18.9 66 18.9 100 100 N N/A 30.09 1019 0 0 N/A
4:53 am 04:53 Mostly Cloudy with Mist and Fog 66 18.9 66 18.9 100 100 N N/A 30.11 1020 1 2 N/A
5:03 am 05:03 Mostly Cloudy with Fog 66 18.9 66 18.9 100 100 N N/A 30.09 1019 0 0 N/A
5:38 am 05:38 Mostly Cloudy with Fog 65 18.3 65 18.3 100 100 N N/A 30.12 1020 1 1 N/A
5:53 am 05:53 Mostly Cloudy with Mist and Fog 66 18.9 66 18.9 100 100 N N/A 30.13 1020 1 1 N/A
6:04 am 06:04 Mostly Cloudy with Fog 66 18.9 66 18.9 100 100 N N/A 30.12 1020 0 0 N/A
6:23 am 06:23 Mostly Cloudy with Fog 65 18.3 65 18.3 100 100 N N/A 30.12 1020 1 1 N/A
6:42 am 06:42 Mostly Cloudy with Fog 65 18.3 65 18.3 100 100 N N/A 30.12 1020 0 0 N/A
6:49 am 06:49 Mostly Cloudy with Mist and Fog 64 18 64 18 100 100 N N/A 30.12 1020 1 1 N/A
6:53 am 06:53 Mostly Cloudy with Mist and Fog 65 18.3 65 18.3 100 100 N N/A 30.15 1021 1 1 N/A
6:55 am 06:55 Mostly Cloudy with Fog 65 18.3 65 18.3 100 100 N N/A 30.12 1020 0 0 N/A
7:05 am 07:05 Mostly Cloudy with Fog 65 18.3 65 18.3 100 100 N N/A 30.12 1020 1 1 N/A
7:53 am 07:53 Mostly Cloudy with Fog 65 18.3 65 18.3 100 100 N N/A 30.16 1022 0 0 N/A
8:53 am 08:53 Mostly Cloudy with Mist and Fog 68 20 68 20 100 100 SSW 3 6 30.18 1022 1 2 N/A
9:12 am 09:12 Cloudy with Mist and Fog 68 20 68 20 100 100 N N/A 30.18 1022 3 5 N/A
9:19 am 09:19 Partly Cloudy with Mist and Fog 68 20 68 20 100 100 N N/A 30.18 1022 4 6 N/A
9:53 am 09:53 Sunny 71 21.7 71 21.7 100 100 WSW 3 6 30.19 1022 7 11 N/A
10:53 am 10:53 Partly Cloudy 78 25.6 74 23.3 87 87 N N/A 30.19 1022 10 16 N/A
11:53 am 11:53 Sunny 82 27.8 73 22.8 74 74 N N/A 30.19 1022 10 16 N/A
12:53 pm 12:53 Sunny 84 28.9 71 21.7 65 65 N N/A 30.18 1022 10 16 N/A
1:53 pm 13:53 Mostly Cloudy 84 28.9 72 22.2 67 67 SSW 3 6 30.16 1021 10 16 N/A
2:53 pm 14:53 Mostly Cloudy 87 30.6 72 22.2 61 61 S 7 11 30.14 1021 10 16 N/A
3:53 pm 15:53 Mostly Cloudy 87 30.6 70 21.1 57 57 SSW 6 9 30.13 1020 10 16 N/A
4:53 pm 16:53 Partly Cloudy 86 30 71 21.7 61 61 N N/A 30.12 1020 10 16 N/A
5:53 pm 17:53 Partly Cloudy 85 29.4 72 22.2 65 65 N N/A 30.12 1020 10 16 N/A
6:53 pm 18:53 Mostly Sunny 79 26.1 76 24.4 90 90 N N/A 30.12 1020 10 16 N/A
7:53 pm 19:53 Clear 74 23.3 73 22.8 97 97 N N/A 30.13 1020 10 16 N/A
8:53 pm 20:53 Clear 72 22.2 72 22.2 100 100 N N/A 30.14 1021 10 16 N/A
9:53 pm 21:53 Clear 72 22.2 72 22.2 100 100 N N/A 30.16 1021 10 16 N/A
10:53 pm 22:53 Clear with Mist and Fog 70 21.1 70 21.1 100 100 N N/A 30.17 1022 6 10 N/A
11:53 pm 23:53 Clear with Mist and Fog 70 21.1 70 21.1 100 100 N N/A 30.16 1022 5 8 N/A

Powered by AerisWeather